owner,sensor,date,latitude,longitude,vertical_datum,wind_speed,wind_to_direction,wind_speed_of_gust,qcFlag 
TABS,ioos:station:wmo:42046:1,2016-07-01T00:00:00Z,27.8903,-94.0367,4.0,2.828515512,74.83332644,3.74,'11111222,11111222,11111222' 
TABS,ioos:station:wmo:42046:1,2016-07-01T00:30:00Z,27.8903,-94.0367,4.0,1.586442561,56.30959034,2.35,'11111222,11111222,11111222' 
TABS,ioos:station:wmo:42046:1,2016-07-01T01:00:00Z,27.8903,-94.0367,4.0,1.867618805,80.13379521,2.81,'11111222,11111222,11111222' 
TABS,ioos:station:wmo:42046:1,2016-07-01T01:30:00Z,27.8903,-94.0367,4.0,1.823321146,83.06946179,2.73,'11111222,11111222,11111222' 
TABS,ioos:station:wmo:42046:1,2016-07-01T02:00:00Z,27.8903,-94.0367,4.0,1.33,90.00042092,2.3,'11111222,11111222,11111222' 
TABS,ioos:station:wmo:42046:1,2016-07-01T02:30:00Z,27.8903,-94.0367,4.0,1.578131807,95.81937821,2.71,'11111222,11111222,11111222' 
TABS,ioos:station:wmo:42046:1,2016-07-01T03:00:00Z,27.8903,-94.0367,4.0,1.03247276,135.7851385,1.57,'11111222,11111222,11111222' 
TABS,ioos:station:wmo:42046:1,2016-07-01T03:30:00Z,27.8903,-94.0367,4.0,1.44222051,123.6904097,2.22,'11111222,11111222,11111222' 
TABS,ioos:station:wmo:42046:1,2016-07-01T04:00:00Z,27.8903,-94.0367,4.0,2.002023976,87.42301328,3.14,'11111222,11111222,11111222' 
TABS,ioos:station:wmo:42046:1,2016-07-01T04:30:00Z,27.8903,-94.0367,4.0,1.910026178,117.7728677,2.78,'11111222,11111222,11111222' 
TABS,ioos:station:wmo:42046:1,2016-07-01T05:00:00Z,27.8903,-94.0367,4.0,2.164532282,125.5995576,2.64,'11111222,11111222,11111222' 
TABS,ioos:station:wmo:42046:1,2016-07-01T05:30:00Z,27.8903,-94.0367,4.0,2.03039405,127.9990645,2.93,'11111222,11111222,11111222' 
TABS,ioos:station:wmo:42046:1,2016-07-01T06:00:00Z,27.8903,-94.0367,4.0,1.270275561,123.4402119,2.31,'11111222,11111222,11111222' 
TABS,ioos:station:wmo:42046:1,2016-07-01T06:30:00Z,27.8903,-94.0367,4.0,2.174695381,158.9816643,2.75,'11111222,11111222,11111222' 
TABS,ioos:station:wmo:42046:1,2016-07-01T07:00:00Z,27.8903,-94.0367,4.0,2.408692591,190.2837571,3.65,'11111222,11111222,11111222' 
TABS,ioos:station:wmo:42046:1,2016-07-01T07:30:00Z,27.8903,-94.0367,4.0,2.123228674,203.3050465,3.13,'11111222,11111222,11111222' 
TABS,ioos:station:wmo:42046:1,2016-07-01T08:00:00Z,27.8903,-94.0367,4.0,2.294384449,217.9189095,3.07,'11111222,11111222,11111222' 
TABS,ioos:station:wmo:42046:1,2016-07-01T08:30:00Z,27.8903,-94.0367,4.0,2.292007853,194.4001981,3.09,'11111222,11111222,11111222' 
TABS,ioos:station:wmo:42046:1,2016-07-01T09:00:00Z,27.8903,-94.0367,4.0,2.697035409,203.1429574,3.55,'11111222,11111222,11111222' 
TABS,ioos:station:wmo:42046:1,2016-07-01T09:30:00Z,27.8903,-94.0367,4.0,2.556345047,215.9286289,3.45,'11111222,11111222,11111222' 
TABS,ioos:station:wmo:42046:1,2016-07-01T10:00:00Z,27.8903,-94.0367,4.0,2.146182658,232.3826643,2.92,'11111222,11111222,11111222' 
TABS,ioos:station:wmo:42046:1,2016-07-01T10:30:00Z,27.8903,-94.0367,4.0,2.930017065,244.7468957,3.68,'11111222,11111222,11111222' 
TABS,ioos:station:wmo:42046:1,2016-07-01T11:00:00Z,27.8903,-94.0367,4.0,3.154568116,237.821419,4.01,'11111222,11111222,11111222' 
TABS,ioos:station:wmo:42046:1,2016-07-01T11:30:00Z,27.8903,-94.0367,4.0,3.19738956,246.4014596,4.07,'11111222,11111222,11111222' 
TABS,ioos:station:wmo:42046:1,2016-07-01T12:00:00Z,27.8903,-94.0367,4.0,3.744142091,242.1346163,4.5,'11111222,11111222,11111222' 
TABS,ioos:station:wmo:42046:1,2016-07-01T12:30:00Z,27.8903,-94.0367,4.0,7.448657597,210.3174825,9.13,'11111222,11111222,11111222' 
TABS,ioos:station:wmo:42046:1,2016-07-01T13:00:00Z,27.8903,-94.0367,4.0,7.140623222,208.2519898,8.31,'11111222,11111222,11111222' 
TABS,ioos:station:wmo:42046:1,2016-07-01T13:30:00Z,27.8903,-94.0367,4.0,5.963128374,217.9846573,7.19,'11111222,11111222,11111222' 
TABS,ioos:station:wmo:42046:1,2016-07-01T14:00:00Z,27.8903,-94.0367,4.0,4.924479668,230.6861262,7.49,'11111222,11111222,11111222' 
TABS,ioos:station:wmo:42046:1,2016-07-01T14:30:00Z,27.8903,-94.0367,4.0,2.639734835,281.1396372,5.7,'11111222,11111222,11111222' 
TABS,ioos:station:wmo:42046:1,2016-07-01T15:00:00Z,27.8903,-94.0367,4.0,2.541672678,350.9451489,5.1,'11111222,11111222,11111222' 
TABS,ioos:station:wmo:42046:1,2016-07-01T15:30:00Z,27.8903,-94.0367,4.0,4.371933211,358.2958449,6.15,'11111222,11111222,11111222' 
TABS,ioos:station:wmo:42046:1,2016-07-01T16:00:00Z,27.8903,-94.0367,4.0,6.146909793,9.645974454,7.65,'11111222,11111222,11111222' 
TABS,ioos:station:wmo:42046:1,2016-07-01T16:30:00Z,27.8903,-94.0367,4.0,3.567422038,3.69633705,4.36,'11111222,11111222,11111222' 
TABS,ioos:station:wmo:42046:1,2016-07-01T17:00:00Z,27.8903,-94.0367,4.0,3.040263147,0.753636112,3.9,'11111222,11111222,11111222' 
TABS,ioos:station:wmo:42046:1,2016-07-01T17:30:00Z,27.8903,-94.0367,4.0,3.009136089,339.5775043,3.99,'11111222,11111222,11111222' 
TABS,ioos:station:wmo:42046:1,2016-07-01T18:00:00Z,27.8903,-94.0367,4.0,4.861985191,343.0183977,6.49,'11111222,11111222,11111222' 
TABS,ioos:station:wmo:42046:1,2016-07-01T18:30:00Z,27.8903,-94.0367,4.0,2.732123716,344.2848797,3.64,'11111222,11111222,11111222' 
TABS,ioos:station:wmo:42046:1,2016-07-01T19:00:00Z,27.8903,-94.0367,4.0,1.96817174,323.8868887,2.96,'11111222,11111222,11111222' 
TABS,ioos:station:wmo:42046:1,2016-07-01T19:30:00Z,27.8903,-94.0367,4.0,2.934706118,309.330525,3.71,'11111222,11111222,11111222' 
TABS,ioos:station:wmo:42046:1,2016-07-01T20:00:00Z,27.8903,-94.0367,4.0,3.676139279,323.6287307,4.37,'11111222,11111222,11111222' 
TABS,ioos:station:wmo:42046:1,2016-07-01T20:30:00Z,27.8903,-94.0367,4.0,3.074752023,324.3972093,4.01,'11111222,11111222,11111222' 
TABS,ioos:station:wmo:42046:1,2016-07-01T21:00:00Z,27.8903,-94.0367,4.0,2.147556751,327.9379208,3.22,'11111222,11111222,11111222' 
TABS,ioos:station:wmo:42046:1,2016-07-01T21:30:00Z,27.8903,-94.0367,4.0,1.480033783,337.7671043,2.65,'11111222,11111222,11111222' 
TABS,ioos:station:wmo:42046:1,2016-07-01T22:00:00Z,27.8903,-94.0367,4.0,1.450310312,1.185047588,2.12,'11111222,11111222,11111222' 
TABS,ioos:station:wmo:42046:1,2016-07-01T22:30:00Z,27.8903,-94.0367,4.0,0.684689711,6.709610659,1.05,'11111222,11111222,11111222' 
TABS,ioos:station:wmo:42046:1,2016-07-01T23:00:00Z,27.8903,-94.0367,4.0,0.480208288,58.62664731,1.25,'11111222,11111222,11111222' 
TABS,ioos:station:wmo:42046:1,2016-07-01T23:30:00Z,27.8903,-94.0367,4.0,0.454862617,56.6589497,1.32,'11111222,11111222,11111222' 
TABS,ioos:station:wmo:42046:1,2016-07-02T00:00:00Z,27.8903,-94.0367,4.0,0.33015148,215.1343214,1.01,'11111222,11111222,11111222' 
TABS,ioos:station:wmo:42046:1,2016-07-02T00:30:00Z,27.8903,-94.0367,4.0,0.759605161,110.8212651,1.38,'11111222,11111222,11111222' 
TABS,ioos:station:wmo:42046:1,2016-07-02T01:00:00Z,27.8903,-94.0367,4.0,1.541200831,196.2008956,2.4,'11111222,11111222,11111222' 
TABS,ioos:station:wmo:42046:1,2016-07-02T01:30:00Z,27.8903,-94.0367,4.0,1.705109967,165.3935073,2.64,'11111222,11111222,11111222' 
TABS,ioos:station:wmo:42046:1,2016-07-02T02:00:00Z,27.8903,-94.0367,4.0,1.86681547,172.3041767,2.51,'11111222,11111222,11111222' 
TABS,ioos:station:wmo:42046:1,2016-07-02T02:30:00Z,27.8903,-94.0367,4.0,1.963084308,176.7880082,2.82,'11111222,11111222,11111222' 
TABS,ioos:station:wmo:42046:1,2016-07-02T03:00:00Z,27.8903,-94.0367,4.0,2.095041766,159.3161786,2.75,'11111222,11111222,11111222' 
TABS,ioos:station:wmo:42046:1,2016-07-02T03:30:00Z,27.8903,-94.0367,4.0,2.493290998,172.1626151,3.14,'11111222,11111222,11111222' 
TABS,ioos:station:wmo:42046:1,2016-07-02T04:00:00Z,27.8903,-94.0367,4.0,2.960827587,170.4742839,3.7,'11111222,11111222,11111222' 
TABS,ioos:station:wmo:42046:1,2016-07-02T04:30:00Z,27.8903,-94.0367,4.0,2.97672639,176.1477341,3.75,'11111222,11111222,11111222' 
TABS,ioos:station:wmo:42046:1,2016-07-02T05:00:00Z,27.8903,-94.0367,4.0,3.8,180.0002105,4.8,'11111222,11111222,11111222' 
TABS,ioos:station:wmo:42046:1,2016-07-02T05:30:00Z,27.8903,-94.0367,4.0,4.000312488,179.2840522,5.34,'11111222,11111222,11111222' 
TABS,ioos:station:wmo:42046:1,2016-07-02T06:00:00Z,27.8903,-94.0367,4.0,4.14797541,187.7591373,5.1,'11111222,11111222,11111222' 
TABS,ioos:station:wmo:42046:1,2016-07-02T06:30:00Z,27.8903,-94.0367,4.0,4.165873258,189.3946783,4.79,'11111222,11111222,11111222' 
TABS,ioos:station:wmo:42046:1,2016-07-02T07:00:00Z,27.8903,-94.0367,4.0,4.301081259,204.3007866,5.29,'11111222,11111222,11111222' 
TABS,ioos:station:wmo:42046:1,2016-07-02T07:30:00Z,27.8903,-94.0367,4.0,4.687771325,214.5716011,5.29,'11111222,11111222,11111222' 
TABS,ioos:station:wmo:42046:1,2016-07-02T08:00:00Z,27.8903,-94.0367,4.0,5.004078337,208.9212943,5.88,'11111222,11111222,11111222' 
TABS,ioos:station:wmo:42046:1,2016-07-02T08:30:00Z,27.8903,-94.0367,4.0,4.76831207,207.7474934,5.64,'11111222,11111222,11111222' 
TABS,ioos:station:wmo:42046:1,2016-07-02T09:00:00Z,27.8903,-94.0367,4.0,5.191396729,223.7513516,6.02,'11111222,11111222,11111222' 
TABS,ioos:station:wmo:42046:1,2016-07-02T09:30:00Z,27.8903,-94.0367,4.0,5.348990559,221.4379531,6.71,'11111222,11111222,11111222' 
TABS,ioos:station:wmo:42046:1,2016-07-02T10:00:00Z,27.8903,-94.0367,4.0,4.936901863,223.686968,6.19,'11111222,11111222,11111222' 
TABS,ioos:station:wmo:42046:1,2016-07-02T10:30:00Z,27.8903,-94.0367,4.0,5.077716022,215.3803999,6.14,'11111222,11111222,11111222' 
TABS,ioos:station:wmo:42046:1,2016-07-02T11:00:00Z,27.8903,-94.0367,4.0,5.313313467,226.9067129,6.48,'11111222,11111222,11111222' 
TABS,ioos:station:wmo:42046:1,2016-07-02T11:30:00Z,27.8903,-94.0367,4.0,4.136496102,221.668161,5.02,'11111222,11111222,11111222' 
TABS,ioos:station:wmo:42046:1,2016-07-02T12:00:00Z,27.8903,-94.0367,4.0,4.193292263,224.5170168,4.85,'11111222,11111222,11111222' 
TABS,ioos:station:wmo:42046:1,2016-07-02T12:30:00Z,27.8903,-94.0367,4.0,3.965476012,221.9336269,4.81,'11111222,11111222,11111222' 
TABS,ioos:station:wmo:42046:1,2016-07-02T13:00:00Z,27.8903,-94.0367,4.0,3.273912033,225.1238537,4.29,'11111222,11111222,11111222' 
TABS,ioos:station:wmo:42046:1,2016-07-02T13:30:00Z,27.8903,-94.0367,4.0,2.823915721,227.4397975,3.89,'11111222,11111222,11111222' 
TABS,ioos:station:wmo:42046:1,2016-07-02T14:00:00Z,27.8903,-94.0367,4.0,2.780881155,209.5150231,3.51,'11111222,11111222,11111222' 
TABS,ioos:station:wmo:42046:1,2016-07-02T14:30:00Z,27.8903,-94.0367,4.0,3.020761493,220.7042748,3.63,'11111222,11111222,11111222' 
TABS,ioos:station:wmo:42046:1,2016-07-02T15:00:00Z,27.8903,-94.0367,4.0,2.951372562,220.3276734,3.8,'11111222,11111222,11111222' 
TABS,ioos:station:wmo:42046:1,2016-07-02T15:30:00Z,27.8903,-94.0367,4.0,3.125699922,209.5176597,4.02,'11111222,11111222,11111222' 
TABS,ioos:station:wmo:42046:1,2016-07-02T16:00:00Z,27.8903,-94.0367,4.0,3.106444913,213.1786445,3.9,'11111222,11111222,11111222' 
TABS,ioos:station:wmo:42046:1,2016-07-02T16:30:00Z,27.8903,-94.0367,4.0,3.084444845,201.49112,3.83,'11111222,11111222,11111222' 
TABS,ioos:station:wmo:42046:1,2016-07-02T17:00:00Z,27.8903,-94.0367,4.0,2.618434647,184.6002954,3.64,'11111222,11111222,11111222' 
TABS,ioos:station:wmo:42046:1,2016-07-02T17:30:00Z,27.8903,-94.0367,4.0,2.580891319,191.3971919,3.47,'11111222,11111222,11111222' 
TABS,ioos:station:wmo:42046:1,2016-07-02T18:00:00Z,27.8903,-94.0367,4.0,3.059411708,191.3101165,4.2,'11111222,11111222,11111222' 
TABS,ioos:station:wmo:42046:1,2016-07-02T18:30:00Z,27.8903,-94.0367,4.0,3.346460817,187.2101554,4.23,'11111222,11111222,11111222' 
TABS,ioos:station:wmo:42046:1,2016-07-02T19:00:00Z,27.8903,-94.0367,4.0,3.226282691,190.7180245,4.66,'11111222,11111222,11111222' 
TABS,ioos:station:wmo:42046:1,2016-07-02T19:30:00Z,27.8903,-94.0367,4.0,3.736428776,185.3751072,5.22,'11111222,11111222,11111222' 
TABS,ioos:station:wmo:42046:1,2016-07-02T20:00:00Z,27.8903,-94.0367,4.0,3.722633476,192.0949393,4.76,'11111222,11111222,11111222' 
TABS,ioos:station:wmo:42046:1,2016-07-02T20:30:00Z,27.8903,-94.0367,4.0,3.861204475,198.1066435,4.69,'11111222,11111222,11111222' 
TABS,ioos:station:wmo:42046:1,2016-07-02T21:00:00Z,27.8903,-94.0367,4.0,3.454185866,199.7990405,4.3,'11111222,11111222,11111222' 
TABS,ioos:station:wmo:42046:1,2016-07-02T21:30:00Z,27.8903,-94.0367,4.0,4.063409898,195.2676603,5.23,'11111222,11111222,11111222' 
TABS,ioos:station:wmo:42046:1,2016-07-02T22:00:00Z,27.8903,-94.0367,4.0,3.359315406,184.2680938,4.27,'11111222,11111222,11111222' 
TABS,ioos:station:wmo:42046:1,2016-07-02T22:30:00Z,27.8903,-94.0367,4.0,3.023243292,182.6543998,3.81,'11111222,11111222,11111222' 
TABS,ioos:station:wmo:42046:1,2016-07-02T23:00:00Z,27.8903,-94.0367,4.0,2.670168534,179.3564662,3.54,'11111222,11111222,11111222' 
TABS,ioos:station:wmo:42046:1,2016-07-02T23:30:00Z,27.8903,-94.0367,4.0,3.587087955,187.0459631,4.55,'11111222,11111222,11111222' 
TABS,ioos:station:wmo:42046:1,2016-07-03T00:00:00Z,27.8903,-94.0367,4.0,4.121674417,187.107968,5.26,'11111222,11111222,11111222' 
TABS,ioos:station:wmo:42046:1,2016-07-03T00:30:00Z,27.8903,-94.0367,4.0,4.518683437,183.5528083,5.66,'11111222,11111222,11111222' 
TABS,ioos:station:wmo:42046:1,2016-07-03T01:00:00Z,27.8903,-94.0367,4.0,4.410906936,175.9701312,5.34,'11111222,11111222,11111222' 
TABS,ioos:station:wmo:42046:1,2016-07-03T01:30:00Z,27.8903,-94.0367,4.0,4.820508272,180.8322464,5.75,'11111222,11111222,11111222' 
TABS,ioos:station:wmo:42046:1,2016-07-03T02:00:00Z,27.8903,-94.0367,4.0,4.870164268,167.7904468,5.6,'11111222,11111222,11111222' 
TABS,ioos:station:wmo:42046:1,2016-07-03T02:30:00Z,27.8903,-94.0367,4.0,5.33521321,164.4531416,6.44,'11111222,11111222,11111222' 
TABS,ioos:station:wmo:42046:1,2016-07-03T03:00:00Z,27.8903,-94.0367,4.0,5.371219601,167.3094496,6.35,'11111222,11111222,11111222' 
TABS,ioos:station:wmo:42046:1,2016-07-03T03:30:00Z,27.8903,-94.0367,4.0,5.730061082,161.691785,6.99,'11111222,11111222,11111222' 
TABS,ioos:station:wmo:42046:1,2016-07-03T04:00:00Z,27.8903,-94.0367,4.0,6.005364269,169.2516416,6.87,'11111222,11111222,11111222' 
TABS,ioos:station:wmo:42046:1,2016-07-03T04:30:00Z,27.8903,-94.0367,4.0,6.513555097,170.2776089,7.71,'11111222,11111222,11111222' 
TABS,ioos:station:wmo:42046:1,2016-07-03T05:00:00Z,27.8903,-94.0367,4.0,6.240657017,169.1944643,7.46,'11111222,11111222,11111222' 
TABS,ioos:station:wmo:42046:1,2016-07-03T05:30:00Z,27.8903,-94.0367,4.0,6.480895,175.3980998,7.36,'11111222,11111222,11111222' 
TABS,ioos:station:wmo:42046:1,2016-07-03T06:00:00Z,27.8903,-94.0367,4.0,6.301468083,176.5429902,7.22,'11111222,11111222,11111222' 
TABS,ioos:station:wmo:42046:1,2016-07-03T06:30:00Z,27.8903,-94.0367,4.0,6.421526298,178.7509707,7.73,'11111222,11111222,11111222' 
TABS,ioos:station:wmo:42046:1,2016-07-03T07:00:00Z,27.8903,-94.0367,4.0,6.913385567,183.5661971,8.49,'11111222,11111222,11111222' 
TABS,ioos:station:wmo:42046:1,2016-07-03T07:30:00Z,27.8903,-94.0367,4.0,6.763578934,189.0168558,7.9,'11111222,11111222,11111222' 
TABS,ioos:station:wmo:42046:1,2016-07-03T08:00:00Z,27.8903,-94.0367,4.0,6.750592567,188.862505,7.85,'11111222,11111222,11111222' 
TABS,ioos:station:wmo:42046:1,2016-07-03T08:30:00Z,27.8903,-94.0367,4.0,6.429821148,193.5825609,7.28,'11111222,11111222,11111222' 
TABS,ioos:station:wmo:42046:1,2016-07-03T09:00:00Z,27.8903,-94.0367,4.0,6.516632566,186.0782332,7.56,'11111222,11111222,11111222' 
TABS,ioos:station:wmo:42046:1,2016-07-03T09:30:00Z,27.8903,-94.0367,4.0,7.329611177,196.1603194,8.33,'11111222,11111222,11111222' 
TABS,ioos:station:wmo:42046:1,2016-07-03T10:00:00Z,27.8903,-94.0367,4.0,6.936894118,191.8122707,8.05,'11111222,11111222,11111222' 
TABS,ioos:station:wmo:42046:1,2016-07-03T10:30:00Z,27.8903,-94.0367,4.0,7.209112289,189.0182659,8.88,'11111222,11111222,11111222' 
TABS,ioos:station:wmo:42046:1,2016-07-03T11:00:00Z,27.8903,-94.0367,4.0,8.033928055,195.0050958,9.43,'11111222,11111222,11111222' 
TABS,ioos:station:wmo:42046:1,2016-07-03T11:30:00Z,27.8903,-94.0367,4.0,7.614788244,198.2923532,8.62,'11111222,11111222,11111222' 
TABS,ioos:station:wmo:42046:1,2016-07-03T12:00:00Z,27.8903,-94.0367,4.0,7.348931895,194.3389696,8.97,'11111222,11111222,11111222' 
TABS,ioos:station:wmo:42046:1,2016-07-03T12:30:00Z,27.8903,-94.0367,4.0,7.691774828,191.0179434,9.06,'11111222,11111222,11111222' 
TABS,ioos:station:wmo:42046:1,2016-07-03T13:00:00Z,27.8903,-94.0367,4.0,7.4759481,191.3401772,8.88,'11111222,11111222,11111222' 
TABS,ioos:station:wmo:42046:1,2016-07-03T13:30:00Z,27.8903,-94.0367,4.0,8.231658399,189.8630128,9.94,'11111222,11111222,11111222' 
TABS,ioos:station:wmo:42046:1,2016-07-03T14:00:00Z,27.8903,-94.0367,4.0,7.820927055,197.716931,9.1,'11111222,11111222,11111222' 
TABS,ioos:station:wmo:42046:1,2016-07-03T14:30:00Z,27.8903,-94.0367,4.0,7.891070903,192.9621436,8.9,'11111222,11111222,11111222' 
TABS,ioos:station:wmo:42046:1,2016-07-03T15:00:00Z,27.8903,-94.0367,4.0,7.329372415,196.9764572,8.33,'11111222,11111222,11111222' 
TABS,ioos:station:wmo:42046:1,2016-07-03T15:30:00Z,27.8903,-94.0367,4.0,7.166100753,195.9565516,8.57,'11111222,11111222,11111222' 
TABS,ioos:station:wmo:42046:1,2016-07-03T16:00:00Z,27.8903,-94.0367,4.0,7.126296373,188.3918121,8.57,'11111222,11111222,11111222' 
TABS,ioos:station:wmo:42046:1,2016-07-03T16:30:00Z,27.8903,-94.0367,4.0,6.498692176,189.4770048,7.65,'11111222,11111222,11111222' 
TABS,ioos:station:wmo:42046:1,2016-07-03T17:00:00Z,27.8903,-94.0367,4.0,6.2706459,187.9752315,7.39,'11111222,11111222,11111222' 
TABS,ioos:station:wmo:42046:1,2016-07-03T17:30:00Z,27.8903,-94.0367,4.0,6.52533524,195.1012733,7.17,'11111222,11111222,11111222' 
TABS,ioos:station:wmo:42046:1,2016-07-03T18:00:00Z,27.8903,-94.0367,4.0,6.072832947,186.8092447,6.95,'11111222,11111222,11111222' 
TABS,ioos:station:wmo:42046:1,2016-07-03T18:30:00Z,27.8903,-94.0367,4.0,7.230995782,179.0493327,8.69,'11111222,11111222,11111222' 
TABS,ioos:station:wmo:42046:1,2016-07-03T19:00:00Z,27.8903,-94.0367,4.0,6.767045145,184.0677205,8.28,'11111222,11111222,11111222' 
TABS,ioos:station:wmo:42046:1,2016-07-03T19:30:00Z,27.8903,-94.0367,4.0,7.329188222,184.1470845,8.22,'11111222,11111222,11111222' 
TABS,ioos:station:wmo:42046:1,2016-07-03T20:00:00Z,27.8903,-94.0367,4.0,7.22222265,176.6663676,8.5,'11111222,11111222,11111222' 
TABS,ioos:station:wmo:42046:1,2016-07-03T20:30:00Z,27.8903,-94.0367,4.0,7.282746735,181.5738708,8.38,'11111222,11111222,11111222' 
TABS,ioos:station:wmo:42046:1,2016-07-03T21:00:00Z,27.8903,-94.0367,4.0,6.751066582,181.0186924,8.28,'11111222,11111222,11111222' 
TABS,ioos:station:wmo:42046:1,2016-07-03T21:30:00Z,27.8903,-94.0367,4.0,6.820095307,185.3847754,7.98,'11111222,11111222,11111222' 
TABS,ioos:station:wmo:42046:1,2016-07-03T22:00:00Z,27.8903,-94.0367,4.0,7.003213548,188.2922762,7.77,'11111222,11111222,11111222' 
TABS,ioos:station:wmo:42046:1,2016-07-03T22:30:00Z,27.8903,-94.0367,4.0,6.920354037,180.5797709,8.05,'11111222,11111222,11111222' 
TABS,ioos:station:wmo:42046:1,2016-07-03T23:00:00Z,27.8903,-94.0367,4.0,6.919956647,173.1114166,8.27,'11111222,11111222,11111222' 
TABS,ioos:station:wmo:42046:1,2016-07-03T23:30:00Z,27.8903,-94.0367,4.0,7.076496308,167.9281013,8.51,'11111222,11111222,11111222' 
TABS,ioos:station:wmo:42046:1,2016-07-04T00:00:00Z,27.8903,-94.0367,4.0,7.456460286,169.0218379,8.66,'11111222,11111222,11111222' 
TABS,ioos:station:wmo:42046:1,2016-07-04T00:30:00Z,27.8903,-94.0367,4.0,7.197471778,168.7839757,8.79,'11111222,11111222,11111222' 
TABS,ioos:station:wmo:42046:1,2016-07-04T01:00:00Z,27.8903,-94.0367,4.0,6.881983726,169.1964654,8.44,'11111222,11111222,11111222' 
TABS,ioos:station:wmo:42046:1,2016-07-04T01:30:00Z,27.8903,-94.0367,4.0,7.288017563,169.2453579,8.39,'11111222,11111222,11111222' 
TABS,ioos:station:wmo:42046:1,2016-07-04T02:00:00Z,27.8903,-94.0367,4.0,7.509760316,170.6507957,9.24,'11111222,11111222,11111222' 
TABS,ioos:station:wmo:42046:1,2016-07-04T02:30:00Z,27.8903,-94.0367,4.0,7.933101537,169.1010696,9.43,'11111222,11111222,11111222' 
TABS,ioos:station:wmo:42046:1,2016-07-04T03:00:00Z,27.8903,-94.0367,4.0,8.633064346,171.1380142,10.05,'11111222,11111222,11111222' 
TABS,ioos:station:wmo:42046:1,2016-07-04T03:30:00Z,27.8903,-94.0367,4.0,9.202200824,167.3836382,10.5,'11111222,11111222,11111222' 
TABS,ioos:station:wmo:42046:1,2016-07-04T04:00:00Z,27.8903,-94.0367,4.0,9.029562559,169.2129696,10.79,'11111222,11111222,11111222' 
TABS,ioos:station:wmo:42046:1,2016-07-04T04:30:00Z,27.8903,-94.0367,4.0,9.537641218,172.2269459,11.64,'11111222,11111222,11111222' 
TABS,ioos:station:wmo:42046:1,2016-07-04T05:00:00Z,27.8903,-94.0367,4.0,8.99178514,172.2666304,10.67,'11111222,11111222,11111222' 
TABS,ioos:station:wmo:42046:1,2016-07-04T05:30:00Z,27.8903,-94.0367,4.0,9.383240378,175.9668088,10.75,'11111222,11111222,11111222' 
TABS,ioos:station:wmo:42046:1,2016-07-04T06:00:00Z,27.8903,-94.0367,4.0,9.694338554,178.2859918,11.36,'11111222,11111222,11111222' 
TABS,ioos:station:wmo:42046:1,2016-07-04T06:30:00Z,27.8903,-94.0367,4.0,9.621980046,182.8596354,11.46,'11111222,11111222,11111222' 
TABS,ioos:station:wmo:42046:1,2016-07-04T07:00:00Z,27.8903,-94.0367,4.0,9.706415404,184.9648259,11.24,'11111222,11111222,11111222' 
TABS,ioos:station:wmo:42046:1,2016-07-04T07:30:00Z,27.8903,-94.0367,4.0,9.203396112,187.2410368,10.73,'11111222,11111222,11111222' 
TABS,ioos:station:wmo:42046:1,2016-07-04T08:00:00Z,27.8903,-94.0367,4.0,8.813682545,191.7180893,10.48,'11111222,11111222,11111222' 
TABS,ioos:station:wmo:42046:1,2016-07-04T08:30:00Z,27.8903,-94.0367,4.0,9.204308774,194.2779823,10.73,'11111222,11111222,11111222' 
TABS,ioos:station:wmo:42046:1,2016-07-04T09:00:00Z,27.8903,-94.0367,4.0,8.710298502,187.7860961,10.02,'11111222,11111222,11111222' 
TABS,ioos:station:wmo:42046:1,2016-07-04T09:30:00Z,27.8903,-94.0367,4.0,8.684065868,199.0193196,10.07,'11111222,11111222,11111222' 
TABS,ioos:station:wmo:42046:1,2016-07-04T10:00:00Z,27.8903,-94.0367,4.0,8.567479209,200.7831974,10.33,'11111222,11111222,11111222' 
TABS,ioos:station:wmo:42046:1,2016-07-04T10:30:00Z,27.8903,-94.0367,4.0,9.272718048,196.7349258,11.31,'11111222,11111222,11111222' 
TABS,ioos:station:wmo:42046:1,2016-07-04T11:00:00Z,27.8903,-94.0367,4.0,8.684065868,191.4912674,10.46,'11111222,11111222,11111222' 
TABS,ioos:station:wmo:42046:1,2016-07-04T11:30:00Z,27.8903,-94.0367,4.0,8.931797132,189.4730564,10.29,'11111222,11111222,11111222' 
TABS,ioos:station:wmo:42046:1,2016-07-04T12:00:00Z,27.8903,-94.0367,4.0,7.645246889,188.0455056,9.21,'11111222,11111222,11111222' 
TABS,ioos:station:wmo:42046:1,2016-07-04T12:30:00Z,27.8903,-94.0367,4.0,7.919103485,189.5219829,9.87,'11111222,11111222,11111222' 
TABS,ioos:station:wmo:42046:1,2016-07-04T13:00:00Z,27.8903,-94.0367,4.0,7.953389215,186.6426943,9.55,'11111222,11111222,11111222' 
TABS,ioos:station:wmo:42046:1,2016-07-04T13:30:00Z,27.8903,-94.0367,4.0,8.152748003,185.1373634,9.32,'11111222,11111222,11111222' 
TABS,ioos:station:wmo:42046:1,2016-07-04T14:00:00Z,27.8903,-94.0367,4.0,8.297288714,189.2241112,9.4,'11111222,11111222,11111222' 
TABS,ioos:station:wmo:42046:1,2016-07-04T14:30:00Z,27.8903,-94.0367,4.0,8.189603165,186.3094836,9.56,'11111222,11111222,11111222' 
TABS,ioos:station:wmo:42046:1,2016-07-04T15:00:00Z,27.8903,-94.0367,4.0,8.069553891,184.9053551,9.45,'11111222,11111222,11111222' 
TABS,ioos:station:wmo:42046:1,2016-07-04T15:30:00Z,27.8903,-94.0367,4.0,7.992759223,181.5057569,9.95,'11111222,11111222,11111222' 
TABS,ioos:station:wmo:42046:1,2016-07-04T16:00:00Z,27.8903,-94.0367,4.0,8.371343978,178.9735167,10.42,'11111222,11111222,11111222' 
TABS,ioos:station:wmo:42046:1,2016-07-04T16:30:00Z,27.8903,-94.0367,4.0,8.550842064,180.8043071,9.93,'11111222,11111222,11111222' 
TABS,ioos:station:wmo:42046:1,2016-07-04T17:00:00Z,27.8903,-94.0367,4.0,8.170097919,180.2807255,10.01,'11111222,11111222,11111222' 
TABS,ioos:station:wmo:42046:1,2016-07-04T17:30:00Z,27.8903,-94.0367,4.0,7.970972337,186.483269,9.16,'11111222,11111222,11111222' 
TABS,ioos:station:wmo:42046:1,2016-07-04T18:00:00Z,27.8903,-94.0367,4.0,7.577928477,191.3397726,8.72,'11111222,11111222,11111222' 
TABS,ioos:station:wmo:42046:1,2016-07-04T18:30:00Z,27.8903,-94.0367,4.0,8.046297285,184.6337448,9.16,'11111222,11111222,11111222' 